Location: San Antonio
(29.4240°N, 98.4930°W)
Time: 18:28:20
(UTC-05:00)

ZACube-1 - Pass Details

Date: 08 August 2024
Orbit: 561 x 628 km, 97.7° (Epoch: 15 September)

Event Time Altitude Azimuth Distance (km) Brightness Sun altitude
Rises 04:44:59 0° 3° (N) 2,909 ? -26.3°
Reaches altitude 10° 04:47:14 10° 356° (N) 2,006 ? -25.9°
Enters shadow 04:50:02 33° 329° (NNW) 1,062 ? -25.5°
